| time (UTC) | temp C | wind direction | speed KPH | gust KPH | rain 1hr cm | rain 24hr cm | rain mn cm | humidity % | barometer mb |
| 20260508174033 | 13 | 192 | 17.7 | 24.1 | 0.00 | 0.00 | 0.00 | 45 | 1023.6 |
| 20260508173533 | 13 | 191 | 11.3 | 20.9 | 0.00 | 0.00 | 0.00 | 45 | 1023.5 |
| 20260508173038 | 13 | 229 | 12.9 | 20.9 | 0.00 | 0.00 | 0.00 | 47 | 1023.6 |
| 20260508172534 | 13 | 207 | 11.3 | 20.9 | 0.00 | 0.00 | 0.00 | 46 | 1023.5 |
| 20260508172034 | 13 | 221 | 9.7 | 22.5 | 0.00 | 0.00 | 0.00 | 45 | 1023.4 |
| 20260508171545 | 13 | 221 | 16.1 | 22.5 | 0.00 | 0.00 | 0.00 | 45 | 1023.4 |
| 20260508171034 | 14 | 221 | 17.7 | 22.5 | 0.00 | 0.00 | 0.00 | 45 | 1023.4 |
| 20260508170534 | 14 | 223 | 12.9 | 22.5 | 0.00 | 0.00 | 0.00 | 45 | 1023.5 |
| 20260508170047 | 14 | 224 | 14.5 | 22.5 | 0.00 | 0.00 | 0.00 | 43 | 1023.3 |
| 20260508165533 | 14 | 244 | 17.7 | 25.7 | 0.00 | 0.00 | 0.00 | 44 | 1023.4 |
| 20260508165033 | 14 | 181 | 16.1 | 27.4 | 0.00 | 0.00 | 0.00 | 44 | 1023.4 |
| 20260508164550 | 14 | 212 | 16.1 | 27.4 | 0.00 | 0.00 | 0.00 | 44 | 1023.5 |
| 20260508164033 | 13 | 222 | 9.7 | 24.1 | 0.00 | 0.00 | 0.00 | 45 | 1023.4 |
| 20260508163537 | 14 | 91 | 8.0 | 17.7 | 0.00 | 0.00 | 0.00 | 45 | 1023.4 |
| 20260508163044 | 14 | 211 | 8.0 | 20.9 | 0.00 | 0.00 | 0.00 | 44 | 1023.3 |
| 20260508162533 | 15 | 241 | 16.1 | 25.7 | 0.00 | 0.00 | 0.00 | 43 | 1023.4 |
| 20260508162033 | 14 | 202 | 16.1 | 25.7 | 0.00 | 0.00 | 0.00 | 41 | 1023.2 |
| 20260508161540 | 15 | 224 | 12.9 | 27.4 | 0.00 | 0.00 | 0.00 | 43 | 1023.4 |
| 20260508161033 | 14 | 229 | 17.7 | 27.4 | 0.00 | 0.00 | 0.00 | 42 | 1023.4 |
| 20260508160533 | 14 | 214 | 11.3 | 20.9 | 0.00 | 0.00 | 0.00 | 44 | 1023.5 |
| 20260508160040 | 14 | 231 | 12.9 | 20.9 | 0.00 | 0.00 | 0.00 | 44 | 1023.5 |
| 20260508155534 | 14 | 61 | 9.7 | 20.9 | 0.00 | 0.00 | 0.00 | 43 | 1023.4 |
| 20260508155034 | 15 | 224 | 11.3 | 20.9 | 0.00 | 0.00 | 0.00 | 45 | 1023.4 |
| 20260508154538 | 14 | 215 | 14.5 | 20.9 | 0.00 | 0.00 | 0.00 | 44 | 1023.4 |
| 20260508154033 | 14 | 229 | 12.9 | 20.9 | 0.00 | 0.00 | 0.00 | 44 | 1023.5 |
| 20260508153534 | 14 | 205 | 11.3 | 19.3 | 0.00 | 0.00 | 0.00 | 45 | 1023.4 |
| 20260508153054 | 14 | 185 | 9.7 | 19.3 | 0.00 | 0.00 | 0.00 | 44 | 1023.4 |
| 20260508152534 | 14 | 207 | 11.3 | 27.4 | 0.00 | 0.00 | 0.00 | 44 | 1023.5 |
| 20260508152033 | 15 | 113 | 16.1 | 27.4 | 0.00 | 0.00 | 0.00 | 43 | 1023.5 |
| 20260508151545 | 15 | 226 | 17.7 | 25.7 | 0.00 | 0.00 | 0.00 | 43 | 1023.5 |
| 20260508151034 | 15 | 218 | 16.1 | 25.7 | 0.00 | 0.00 | 0.00 | 42 | 1023.6 |
| 20260508150533 | 15 | 244 | 17.7 | 24.1 | 0.00 | 0.00 | 0.00 | 42 | 1023.5 |
| 20260508150045 | 15 | 238 | 14.5 | 27.4 | 0.00 | 0.00 | 0.00 | 43 | 1023.5 |
| 20260508145533 | 15 | 204 | 12.9 | 30.6 | 0.00 | 0.00 | 0.00 | 43 | 1023.5 |
| 20260508145033 | 15 | 236 | 19.3 | 33.8 | 0.00 | 0.00 | 0.00 | 42 | 1023.5 |
| 20260508144550 | 15 | 227 | 22.5 | 33.8 | 0.00 | 0.00 | 0.00 | 41 | 1023.6 |
| 20260508144033 | 15 | 207 | 14.5 | 32.2 | 0.00 | 0.00 | 0.00 | 43 | 1023.6 |
| 20260508143534 | 15 | 169 | 19.3 | 32.2 | 0.00 | 0.00 | 0.00 | 41 | 1023.6 |
| 20260508143043 | 15 | 229 | 16.1 | 29.0 | 0.00 | 0.00 | 0.00 | 41 | 1023.5 |
| 20260508142534 | 15 | 211 | 17.7 | 25.7 | 0.00 | 0.00 | 0.00 | 41 | 1023.7 |
| 20260508142033 | 15 | 225 | 16.1 | 30.6 | 0.00 | 0.00 | 0.00 | 42 | 1023.6 |
| 20260508141600 | 15 | 176 | 19.3 | 32.2 | 0.00 | 0.00 | 0.00 | 39 | 1023.6 |
| 20260508141034 | 15 | 176 | 16.1 | 32.2 | 0.00 | 0.00 | 0.00 | 40 | 1023.7 |
| 20260508140533 | 15 | 225 | 24.1 | 32.2 | 0.00 | 0.00 | 0.00 | 40 | 1023.7 |
| 20260508140039 | 15 | 220 | 19.3 | 27.4 | 0.00 | 0.00 | 0.00 | 41 | 1023.6 |
| 20260508135534 | 15 | 231 | 19.3 | 29.0 | 0.00 | 0.00 | 0.00 | 41 | 1023.7 |
| 20260508135034 | 15 | 214 | 19.3 | 32.2 | 0.00 | 0.00 | 0.00 | 43 | 1023.7 |
| 20260508134545 | 15 | 219 | 19.3 | 32.2 | 0.00 | 0.00 | 0.00 | 41 | 1023.8 |
| 20260508134034 | 15 | 241 | 19.3 | 30.6 | 0.00 | 0.00 | 0.00 | 43 | 1023.8 |
| 20260508133534 | 15 | 231 | 20.9 | 30.6 | 0.00 | 0.00 | 0.00 | 40 | 1023.9 |
| 20260508133045 | 15 | 250 | 22.5 | 30.6 | 0.00 | 0.00 | 0.00 | 41 | 1023.9 |
| 20260508132535 | 15 | 166 | 16.1 | 30.6 | 0.00 | 0.00 | 0.00 | 41 | 1023.8 |
| 20260508132034 | 15 | 197 | 17.7 | 33.8 | 0.00 | 0.00 | 0.00 | 42 | 1023.8 |
| 20260508131556 | 15 | 221 | 16.1 | 33.8 | 0.00 | 0.00 | 0.00 | 41 | 1024.0 |
| 20260508131034 | 15 | 197 | 14.5 | 29.0 | 0.00 | 0.00 | 0.00 | 42 | 1024.0 |
| 20260508130535 | 15 | 212 | 14.5 | 29.0 | 0.00 | 0.00 | 0.00 | 41 | 1024.0 |
| 20260508130042 | 15 | 229 | 16.1 | 30.6 | 0.00 | 0.00 | 0.00 | 42 | 1023.9 |
| 20260508125533 | 15 | 143 | 14.5 | 30.6 | 0.00 | 0.00 | 0.00 | 42 | 1023.9 |
| 20260508125034 | 15 | 207 | 17.7 | 30.6 | 0.00 | 0.00 | 0.00 | 40 | 1024.0 |
| 20260508124539 | 15 | 229 | 20.9 | 33.8 | 0.00 | 0.00 | 0.00 | 41 | 1023.9 |
| 20260508124033 | 15 | 238 | 19.3 | 33.8 | 0.00 | 0.00 | 0.00 | 41 | 1023.9 |
| 20260508123534 | 15 | 212 | 20.9 | 33.8 | 0.00 | 0.00 | 0.00 | 42 | 1024.0 |
| 20260508123056 | 15 | 214 | 19.3 | 30.6 | 0.00 | 0.00 | 0.00 | 42 | 1023.8 |
| 20260508122534 | 15 | 220 | 16.1 | 27.4 | 0.00 | 0.00 | 0.00 | 40 | 1024.1 |
| 20260508122033 | 15 | 217 | 11.3 | 24.1 | 0.00 | 0.00 | 0.00 | 41 | 1023.8 |
| 20260508121548 | 15 | 222 | 9.7 | 27.4 | 0.00 | 0.00 | 0.00 | 42 | 1023.8 |
| 20260508121034 | 15 | 209 | 16.1 | 27.4 | 0.00 | 0.00 | 0.00 | 42 | 1023.9 |
| 20260508120533 | 15 | 226 | 14.5 | 27.4 | 0.00 | 0.00 | 0.00 | 42 | 1023.7 |
| 20260508120104 | 15 | 202 | 12.9 | 27.4 | 0.00 | 0.00 | 0.00 | 42 | 1023.7 |
| 20260508115534 | 15 | 219 | 16.1 | 27.4 | 0.00 | 0.00 | 0.00 | 43 | 1023.8 |
| 20260508115033 | 15 | 246 | 16.1 | 27.4 | 0.00 | 0.00 | 0.00 | 42 | 1023.8 |
| 20260508114555 | 15 | 224 | 14.5 | 25.7 | 0.00 | 0.00 | 0.00 | 42 | 1023.8 |
| 20260508114037 | 15 | 228 | 16.1 | 25.7 | 0.00 | 0.00 | 0.00 | 43 | 1023.7 |
| 20260508113558 | 15 | 202 | 9.7 | 24.1 | 0.00 | 0.00 | 0.00 | 45 | 1023.7 |
| 20260508113100 | 15 | 184 | 11.3 | 24.1 | 0.00 | 0.00 | 0.00 | 42 | 1023.7 |
| 20260508112534 | 15 | 193 | 14.5 | 24.1 | 0.00 | 0.00 | 0.00 | 42 | 1023.7 |
| 20260508112033 | 15 | 233 | 12.9 | 24.1 | 0.00 | 0.00 | 0.00 | 44 | 1023.8 |
| 20260508111541 | 15 | 231 | 12.9 | 24.1 | 0.00 | 0.00 | 0.00 | 44 | 1023.8 |
| 20260508111033 | 15 | 80 | 9.7 | 20.9 | 0.00 | 0.00 | 0.00 | 47 | 1023.6 |
| 20260508110534 | 14 | 115 | 9.7 | 29.0 | 0.00 | 0.00 | 0.00 | 44 | 1023.4 |
| 20260508110038 | 14 | 220 | 12.9 | 29.0 | 0.00 | 0.00 | 0.00 | 47 | 1023.7 |
| 20260508105534 | 14 | 240 | 14.5 | 27.4 | 0.00 | 0.00 | 0.00 | 48 | 1023.7 |
| 20260508105034 | 14 | 207 | 14.5 | 22.5 | 0.00 | 0.00 | 0.00 | 46 | 1023.7 |
| 20260508104547 | 14 | 219 | 14.5 | 22.5 | 0.00 | 0.00 | 0.00 | 48 | 1023.5 |
| 20260508104033 | 13 | 248 | 14.5 | 22.5 | 0.00 | 0.00 | 0.00 | 48 | 1023.6 |
| 20260508103533 | 14 | 221 | 14.5 | 20.9 | 0.00 | 0.00 | 0.00 | 49 | 1023.4 |
| 20260508103053 | 13 | 223 | 12.9 | 20.9 | 0.00 | 0.00 | 0.00 | 49 | 1023.6 |
| 20260508102533 | 13 | 210 | 12.9 | 22.5 | 0.00 | 0.00 | 0.00 | 51 | 1023.7 |
| 20260508102033 | 13 | 188 | 9.7 | 22.5 | 0.00 | 0.00 | 0.00 | 51 | 1023.5 |
| 20260508101551 | 13 | 100 | 11.3 | 19.3 | 0.00 | 0.00 | 0.00 | 52 | 1023.5 |
| 20260508101034 | 13 | 186 | 11.3 | 19.3 | 0.00 | 0.00 | 0.00 | 50 | 1023.6 |
| 20260508100533 | 14 | 214 | 11.3 | 17.7 | 0.00 | 0.00 | 0.00 | 50 | 1023.5 |
| 20260508100040 | 14 | 103 | 11.3 | 25.7 | 0.00 | 0.00 | 0.00 | 52 | 1023.5 |
| 20260508095533 | 14 | 181 | 9.7 | 25.7 | 0.00 | 0.00 | 0.00 | 50 | 1023.5 |
| 20260508095033 | 13 | 214 | 17.7 | 24.1 | 0.00 | 0.00 | 0.00 | 49 | 1023.6 |
| 20260508094540 | 13 | 224 | 9.7 | 20.9 | 0.00 | 0.00 | 0.00 | 52 | 1023.6 |
| 20260508094033 | 13 | 113 | 8.0 | 17.7 | 0.00 | 0.00 | 0.00 | 53 | 1023.6 |
| 20260508093536 | 13 | 126 | 11.3 | 22.5 | 0.00 | 0.00 | 0.00 | 53 | 1023.7 |
| 20260508093046 | 13 | 179 | 9.7 | 22.5 | 0.00 | 0.00 | 0.00 | 51 | 1023.7 |
| 20260508092535 | 13 | 124 | 9.7 | 20.9 | 0.00 | 0.00 | 0.00 | 53 | 1023.5 |
| 20260508092033 | 13 | 160 | 8.0 | 20.9 | 0.00 | 0.00 | 0.00 | 54 | 1023.7 |
| 20260508091545 | 12 | 226 | 9.7 | 20.9 | 0.00 | 0.00 | 0.00 | 52 | 1023.7 |
| 20260508091033 | 12 | 221 | 9.7 | 19.3 | 0.00 | 0.00 | 0.00 | 51 | 1023.7 |
| 20260508090533 | 12 | 134 | 8.0 | 19.3 | 0.00 | 0.00 | 0.00 | 51 | 1023.7 |
| 20260508090050 | 12 | 181 | 8.0 | 19.3 | 0.00 | 0.00 | 0.00 | 50 | 1023.8 |
| 20260508085534 | 12 | 115 | 6.4 | 20.9 | 0.00 | 0.00 | 0.00 | 52 | 1023.7 |
| 20260508085033 | 12 | 162 | 8.0 | 20.9 | 0.00 | 0.00 | 0.00 | 51 | 1023.8 |
| 20260508084539 | 12 | 147 | 11.3 | 20.9 | 0.00 | 0.00 | 0.00 | 52 | 1023.7 |
| 20260508084034 | 12 | 95 | 4.8 | 19.3 | 0.00 | 0.00 | 0.00 | 55 | 1023.6 |
| 20260508083532 | 11 | 173 | 6.4 | 19.3 | 0.00 | 0.00 | 0.00 | 57 | 1023.8 |
| 20260508083149 | 11 | 107 | 4.8 | 14.5 | 0.00 | 0.00 | 0.00 | 56 | 1023.7 |
| 20260508082536 | 11 | 173 | 4.8 | 16.1 | 0.00 | 0.00 | 0.00 | 58 | 1023.9 |
| 20260508082034 | 11 | 90 | 6.4 | 16.1 | 0.00 | 0.00 | 0.00 | 59 | 1023.8 |
| 20260508081548 | 11 | 109 | 4.8 | 16.1 | 0.00 | 0.00 | 0.00 | 58 | 1023.7 |
| 20260508081033 | 11 | 169 | 4.8 | 14.5 | 0.00 | 0.00 | 0.00 | 59 | 1023.8 |
| 20260508080535 | 11 | 222 | 6.4 | 14.5 | 0.00 | 0.00 | 0.00 | 59 | 1023.7 |
| 20260508080048 | 10 | 225 | 4.8 | 14.5 | 0.00 | 0.00 | 0.00 | 57 | 1023.7 |
| 20260508075534 | 10 | 202 | 4.8 | 14.5 | 0.00 | 0.00 | 0.00 | 57 | 1023.7 |
| 20260508075033 | 10 | 122 | 6.4 | 14.5 | 0.00 | 0.00 | 0.00 | 58 | 1023.7 |
| 20260508074547 | 10 | 154 | 4.8 | 11.3 | 0.00 | 0.00 | 0.00 | 60 | 1023.7 |
| 20260508074035 | 10 | 124 | 4.8 | 11.3 | 0.00 | 0.00 | 0.00 | 60 | 1023.6 |
| 20260508073534 | 10 | 104 | 3.2 | 9.7 | 0.00 | 0.00 | 0.00 | 64 | 1023.6 |
| 20260508073045 | 9 | 89 | 3.2 | 11.3 | 0.00 | 0.00 | 0.00 | 65 | 1023.6 |
| 20260508072534 | 8 | 89 | 4.8 | 11.3 | 0.00 | 0.00 | 0.00 | 67 | 1023.7 |
| 20260508072034 | 8 | 174 | 3.2 | 9.7 | 0.00 | 0.00 | 0.00 | 68 | 1023.7 |
| 20260508071541 | 8 | 90 | 1.6 | 6.4 | 0.00 | 0.00 | 0.00 | 68 | 1023.6 |
| 20260508071033 | 7 | 148 | 0.0 | 4.8 | 0.00 | 0.00 | 0.00 | 68 | 1023.6 |
| 20260508070534 | 7 | 0 | 3.2 | 4.8 | 0.00 | 0.00 | 0.00 | 67 | 1023.6 |
| 20260508070040 | 7 | 222 | 3.2 | 4.8 | 0.00 | 0.00 | 0.00 | 68 | 1023.5 |
| 20260508065533 | 7 | 0 | 1.6 | 4.8 | 0.00 | 0.00 | 0.00 | 68 | 1023.5 |
| 20260508065035 | 6 | 0 | 0.0 | 1.6 | 0.00 | 0.00 | 0.00 | 65 | 1023.6 |
| 20260508064542 | 6 | 0 | 0.0 | 1.6 | 0.00 | 0.00 | 0.00 | 62 | 1023.6 |
| 20260508064033 | 5 | 0 | 0.0 | 1.6 | 0.00 | 0.00 | 0.00 | 60 | 1023.4 |
| 20260508063533 | 5 | 219 | 1.6 | 1.6 | 0.00 | 0.00 | 0.00 | 58 | 1023.4 |
| 20260508063056 | 5 | 209 | 0.0 | 1.6 | 0.00 | 0.00 | 0.00 | 60 | 1023.5 |
| 20260508062533 | 5 | 0 | 0.0 | 3.2 | 0.00 | 0.00 | 0.00 | 63 | 1023.5 |
| 20260508062033 | 5 | 280 | 0.0 | 3.2 | 0.00 | 0.00 | 0.00 | 63 | 1023.3 |
| 20260508061548 | 4 | 294 | 1.6 | 3.2 | 0.00 | 0.00 | 0.00 | 63 | 1023.3 |
| 20260508061034 | 3 | 287 | 0.0 | 1.6 | 0.00 | 0.00 | 0.00 | 68 | 1023.1 |
| 20260508060533 | 3 | 0 | 0.0 | 0.0 | 0.00 | 0.00 | 0.00 | 72 | 1023.3 |
| 20260508060046 | 3 | 0 | 0.0 | 0.0 | 0.00 | 0.00 | 0.00 | 76 | 1023.1 |
| 20260508055533 | 2 | 0 | 0.0 | 0.0 | 0.00 | 0.00 | 0.00 | 77 | 1023.1 |
| 20260508055033 | 2 | 0 | 0.0 | 0.0 | 0.00 | 0.00 | 0.00 | 78 | 1023.1 |
| 20260508054544 | 1 | 0 | 0.0 | 0.0 | 0.00 | 0.00 | 0.00 | 79 | 1023.0 |
| 20260508054033 | 1 | 0 | 0.0 | 0.0 | 0.00 | 0.00 | 0.00 | 79 | 1023.0 |
| 20260508053533 | 1 | 0 | 0.0 | 0.0 | 0.00 | 0.00 | 0.00 | 80 | 1022.9 |
| 20260508053042 | 1 | 0 | 0.0 | 0.0 | 0.00 | 0.00 | 0.00 | 80 | 1022.9 |
| 20260508052533 | 0 | 0 | 0.0 | 0.0 | 0.00 | 0.00 | 0.00 | 83 | 1023.0 |
| 20260508052032 | 0 | 0 | 0.0 | 0.0 | 0.00 | 0.00 | 0.00 | 85 | 1023.0 |
| 20260508051543 | 0 | 0 | 0.0 | 0.0 | 0.00 | 0.00 | 0.00 | 85 | 1023.0 |
| 20260508051033 | 0 | 0 | 0.0 | 0.0 | 0.00 | 0.00 | 0.00 | 86 | 1022.9 |
| 20260508050533 | 0 | 0 | 0.0 | 1.6 | 0.00 | 0.00 | 0.00 | 86 | 1022.9 |
| 20260508050048 | 0 | 0 | 0.0 | 1.6 | 0.00 | 0.00 | 0.00 | 87 | 1022.8 |
| 20260508045532 | -1 | 0 | 0.0 | 0.0 | 0.00 | 0.00 | 0.00 | 86 | 1022.8 |
| 20260508045032 | -1 | 0 | 0.0 | 0.0 | 0.00 | 0.00 | 0.00 | 86 | 1022.7 |
| 20260508044545 | -1 | 0 | 0.0 | 0.0 | 0.00 | 0.00 | 0.00 | 86 | 1022.7 |
| 20260508044032 | -1 | 0 | 0.0 | 0.0 | 0.00 | 0.00 | 0.00 | 86 | 1022.6 |
| 20260508043533 | -1 | 0 | 0.0 | 0.0 | 0.00 | 0.00 | 0.00 | 86 | 1022.4 |
| 20260508043056 | -1 | 0 | 0.0 | 0.0 | 0.00 | 0.00 | 0.00 | 85 | 1022.5 |
| 20260508042533 | -1 | 0 | 0.0 | 0.0 | 0.00 | 0.00 | 0.00 | 85 | 1022.4 |
| 20260508042035 | -1 | 0 | 0.0 | 0.0 | 0.00 | 0.00 | 0.00 | 85 | 1022.4 |
| 20260508041550 | -1 | 0 | 0.0 | 0.0 | 0.00 | 0.00 | 0.00 | 85 | 1022.4 |
| 20260508041035 | -1 | 0 | 0.0 | 0.0 | 0.00 | 0.00 | 0.00 | 84 | 1022.3 |
| 20260508040533 | -1 | 0 | 0.0 | 0.0 | 0.00 | 0.00 | 0.00 | 84 | 1022.3 |
| 20260508040042 | -1 | 0 | 0.0 | 0.0 | 0.00 | 0.00 | 0.00 | 84 | 1022.3 |
| 20260508035533 | -1 | 0 | 0.0 | 0.0 | 0.00 | 0.00 | 0.00 | 84 | 1022.2 |
| 20260508035033 | -1 | 0 | 0.0 | 0.0 | 0.00 | 0.00 | 0.00 | 85 | 1022.2 |
| 20260508034548 | -1 | 0 | 0.0 | 0.0 | 0.00 | 0.00 | 0.00 | 86 | 1022.2 |
| 20260508034032 | -1 | 0 | 0.0 | 0.0 | 0.00 | 0.00 | 0.00 | 87 | 1022.2 |
| 20260508033532 | -1 | 0 | 0.0 | 0.0 | 0.00 | 0.00 | 0.00 | 87 | 1022.1 |
| 20260508033039 | -1 | 0 | 0.0 | 0.0 | 0.00 | 0.00 | 0.00 | 87 | 1022.1 |
| 20260508032533 | -1 | 0 | 0.0 | 0.0 | 0.00 | 0.00 | 0.00 | 87 | 1022.0 |
| 20260508032035 | -1 | 0 | 0.0 | 0.0 | 0.00 | 0.00 | 0.00 | 87 | 1022.1 |
| 20260508031544 | -1 | 0 | 0.0 | 0.0 | 0.00 | 0.00 | 0.00 | 87 | 1022.1 |
| 20260508031033 | -1 | 0 | 0.0 | 0.0 | 0.00 | 0.00 | 0.00 | 87 | 1022.1 |
| 20260508030534 | -1 | 0 | 0.0 | 0.0 | 0.00 | 0.00 | 0.00 | 86 | 1022.2 |
| 20260508030045 | -1 | 0 | 0.0 | 0.0 | 0.00 | 0.00 | 0.00 | 86 | 1022.1 |
| 20260508025533 | -2 | 0 | 0.0 | 0.0 | 0.00 | 0.00 | 0.00 | 85 | 1022.0 |
| 20260508025034 | -1 | 0 | 0.0 | 0.0 | 0.00 | 0.00 | 0.00 | 85 | 1022.1 |
| 20260508024541 | -1 | 0 | 0.0 | 0.0 | 0.00 | 0.00 | 0.00 | 86 | 1022.0 |
| 20260508024033 | -2 | 0 | 0.0 | 0.0 | 0.00 | 0.00 | 0.00 | 85 | 1021.9 |
| 20260508023533 | -2 | 0 | 0.0 | 0.0 | 0.00 | 0.00 | 0.00 | 85 | 1021.9 |
| 20260508023038 | -2 | 0 | 0.0 | 0.0 | 0.00 | 0.00 | 0.00 | 84 | 1021.9 |
| 20260508022533 | -2 | 0 | 0.0 | 0.0 | 0.00 | 0.00 | 0.00 | 85 | 1021.8 |
| 20260508022033 | -1 | 0 | 0.0 | 0.0 | 0.00 | 0.00 | 0.00 | 86 | 1021.8 |
| 20260508021551 | -1 | 0 | 0.0 | 0.0 | 0.00 | 0.00 | 0.00 | 86 | 1021.9 |
| 20260508021032 | -1 | 0 | 0.0 | 0.0 | 0.00 | 0.00 | 0.00 | 86 | 1021.8 |
| 20260508020532 | -2 | 0 | 0.0 | 0.0 | 0.00 | 0.00 | 0.00 | 86 | 1021.8 |
| 20260508020049 | -2 | 0 | 0.0 | 0.0 | 0.00 | 0.00 | 0.00 | 85 | 1021.8 |
| 20260508015532 | -1 | 0 | 0.0 | 0.0 | 0.00 | 0.00 | 0.00 | 85 | 1021.8 |
| 20260508015032 | -1 | 0 | 0.0 | 0.0 | 0.00 | 0.00 | 0.00 | 85 | 1021.8 |
| 20260508014544 | -1 | 0 | 0.0 | 0.0 | 0.00 | 0.00 | 0.00 | 84 | 1021.8 |
| 20260508014033 | -1 | 0 | 0.0 | 0.0 | 0.00 | 0.00 | 0.00 | 84 | 1021.9 |
| 20260508013533 | -1 | 0 | 0.0 | 0.0 | 0.00 | 0.00 | 0.00 | 83 | 1021.7 |
| 20260508013053 | -1 | 0 | 0.0 | 0.0 | 0.00 | 0.00 | 0.00 | 83 | 1021.7 |
| 20260508012533 | -1 | 0 | 0.0 | 0.0 | 0.00 | 0.00 | 0.00 | 83 | 1021.6 |
| 20260508012033 | -1 | 0 | 0.0 | 0.0 | 0.00 | 0.00 | 0.00 | 83 | 1021.6 |
| 20260508011543 | -1 | 0 | 0.0 | 0.0 | 0.00 | 0.00 | 0.00 | 80 | 1021.7 |
| 20260508011033 | -1 | 0 | 0.0 | 0.0 | 0.00 | 0.00 | 0.00 | 78 | 1021.6 |
| 20260508010534 | -1 | 0 | 0.0 | 0.0 | 0.00 | 0.00 | 0.00 | 79 | 1021.3 |
| 20260508010050 | -1 | 0 | 0.0 | 0.0 | 0.00 | 0.00 | 0.00 | 80 | 1021.1 |
| 20260508005533 | -1 | 0 | 0.0 | 0.0 | 0.00 | 0.00 | 0.00 | 79 | 1021.2 |
| 20260508005036 | -1 | 0 | 0.0 | 0.0 | 0.00 | 0.00 | 0.00 | 79 | 1021.2 |
| 20260508004545 | 0 | 0 | 0.0 | 0.0 | 0.00 | 0.00 | 0.00 | 79 | 1021.2 |
| 20260508004035 | 0 | 0 | 0.0 | 0.0 | 0.00 | 0.00 | 0.00 | 79 | 1021.2 |
| 20260508003532 | 0 | 0 | 0.0 | 0.0 | 0.00 | 0.00 | 0.00 | 77 | 1021.1 |
| 20260508003041 | 0 | 0 | 0.0 | 0.0 | 0.00 | 0.00 | 0.00 | 77 | 1021.1 |
| 20260508002532 | 0 | 0 | 0.0 | 0.0 | 0.00 | 0.00 | 0.00 | 77 | 1020.9 |
| 20260508002032 | 0 | 0 | 0.0 | 0.0 | 0.00 | 0.00 | 0.00 | 75 | 1020.8 |
| 20260508001607 | 0 | 0 | 0.0 | 0.0 | 0.00 | 0.00 | 0.00 | 73 | 1020.9 |
| 20260508001032 | 0 | 0 | 0.0 | 0.0 | 0.00 | 0.00 | 0.00 | 74 | 1020.9 |
| 20260508000533 | 0 | 0 | 0.0 | 0.0 | 0.00 | 0.00 | 0.00 | 75 | 1020.9 |
| 20260508000040 | 0 | 0 | 0.0 | 0.0 | 0.00 | 0.00 | 0.00 | 74 | 1020.9 |
| 20260507235533 | 0 | 0 | 0.0 | 0.0 | 0.00 | 0.00 | 0.00 | 74 | 1020.8 |
| 20260507235032 | 0 | 0 | 0.0 | 0.0 | 0.00 | 0.00 | 0.00 | 76 | 1020.9 |
| 20260507234547 | 0 | 0 | 0.0 | 0.0 | 0.00 | 0.00 | 0.00 | 77 | 1020.9 |
| 20260507234058 | 0 | 0 | 0.0 | 0.0 | 0.00 | 0.00 | 0.00 | 78 | 1021.0 |
| 20260507233533 | 0 | 0 | 0.0 | 0.0 | 0.00 | 0.00 | 0.00 | 77 | 1020.9 |
| 20260507233046 | 0 | 0 | 0.0 | 0.0 | 0.00 | 0.00 | 0.00 | 78 | 1020.7 |
| 20260507232534 | 0 | 0 | 0.0 | 0.0 | 0.00 | 0.00 | 0.00 | 79 | 1020.7 |
| 20260507232033 | 0 | 0 | 0.0 | 0.0 | 0.00 | 0.00 | 0.00 | 79 | 1020.7 |
| 20260507231545 | 0 | 0 | 0.0 | 0.0 | 0.00 | 0.00 | 0.00 | 79 | 1020.7 |
| 20260507231033 | 0 | 0 | 0.0 | 1.6 | 0.00 | 0.00 | 0.00 | 79 | 1020.7 |
| 20260507230534 | 1 | 0 | 0.0 | 1.6 | 0.00 | 0.00 | 0.00 | 78 | 1020.6 |
| 20260507230044 | 1 | 162 | 0.0 | 1.6 | 0.00 | 0.00 | 0.00 | 76 | 1020.7 |
| 20260507225538 | 1 | 0 | 0.0 | 0.0 | 0.00 | 0.00 | 0.00 | 68 | 1020.6 |
| 20260507225035 | 1 | 0 | 0.0 | 0.0 | 0.00 | 0.00 | 0.00 | 67 | 1020.4 |
| 20260507224554 | 1 | 0 | 0.0 | 0.0 | 0.00 | 0.00 | 0.00 | 66 | 1020.5 |
| 20260507224035 | 1 | 0 | 0.0 | 0.0 | 0.00 | 0.00 | 0.00 | 67 | 1020.4 |
| 20260507223535 | 1 | 0 | 0.0 | 0.0 | 0.00 | 0.00 | 0.00 | 67 | 1020.4 |
| 20260507223039 | 2 | 0 | 0.0 | 0.0 | 0.00 | 0.00 | 0.00 | 68 | 1020.5 |
| 20260507222535 | 2 | 0 | 0.0 | 0.0 | 0.00 | 0.00 | 0.00 | 65 | 1020.4 |
| 20260507222034 | 2 | 0 | 0.0 | 0.0 | 0.00 | 0.00 | 0.00 | 64 | 1020.4 |
| 20260507221547 | 2 | 0 | 0.0 | 0.0 | 0.00 | 0.00 | 0.00 | 63 | 1020.4 |
| 20260507221034 | 2 | 0 | 0.0 | 0.0 | 0.00 | 0.00 | 0.00 | 62 | 1020.4 |
| 20260507220534 | 2 | 0 | 0.0 | 1.6 | 0.00 | 0.00 | 0.00 | 61 | 1020.3 |
| 20260507220048 | 2 | 0 | 0.0 | 1.6 | 0.00 | 0.00 | 0.00 | 60 | 1020.3 |
| 20260507215536 | 3 | 262 | 0.0 | 0.0 | 0.00 | 0.00 | 0.00 | 61 | 1020.4 |
| 20260507215035 | 3 | 0 | 0.0 | 0.0 | 0.00 | 0.00 | 0.00 | 61 | 1020.3 |
| 20260507214548 | 3 | 0 | 0.0 | 0.0 | 0.00 | 0.00 | 0.00 | 61 | 1020.4 |
| 20260507214035 | 3 | 0 | 0.0 | 0.0 | 0.00 | 0.00 | 0.00 | 59 | 1020.4 |
| 20260507213534 | 4 | 0 | 0.0 | 0.0 | 0.00 | 0.00 | 0.00 | 56 | 1020.2 |
| 20260507213043 | 4 | 0 | 0.0 | 0.0 | 0.00 | 0.00 | 0.00 | 55 | 1020.3 |
| 20260507212534 | 4 | 0 | 0.0 | 0.0 | 0.00 | 0.00 | 0.00 | 58 | 1020.3 |
| 20260507212034 | 5 | 0 | 0.0 | 0.0 | 0.00 | 0.00 | 0.00 | 55 | 1020.3 |
| 20260507211543 | 4 | 0 | 0.0 | 0.0 | 0.00 | 0.00 | 0.00 | 56 | 1020.2 |
| 20260507211034 | 4 | 0 | 0.0 | 0.0 | 0.00 | 0.00 | 0.00 | 56 | 1020.1 |
| 20260507210539 | 5 | 0 | 0.0 | 0.0 | 0.00 | 0.00 | 0.00 | 57 | 1020.1 |
| 20260507210041 | 5 | 0 | 0.0 | 0.0 | 0.00 | 0.00 | 0.00 | 55 | 1020.1 |
| 20260507205536 | 5 | 0 | 0.0 | 0.0 | 0.00 | 0.00 | 0.00 | 54 | 1020.2 |
| 20260507205037 | 6 | 0 | 0.0 | 0.0 | 0.00 | 0.00 | 0.00 | 53 | 1020.1 |
| 20260507204552 | 6 | 0 | 0.0 | 0.0 | 0.00 | 0.00 | 0.00 | 51 | 1019.9 |
| 20260507204034 | 6 | 0 | 0.0 | 1.6 | 0.00 | 0.00 | 0.00 | 50 | 1019.8 |
| 20260507203535 | 6 | 0 | 0.0 | 1.6 | 0.00 | 0.00 | 0.00 | 49 | 1019.8 |
| 20260507203048 | 6 | 0 | 0.0 | 1.6 | 0.00 | 0.00 | 0.00 | 49 | 1019.9 |
| 20260507202536 | 6 | 0 | 0.0 | 1.6 | 0.00 | 0.00 | 0.00 | 49 | 1019.8 |
| 20260507202038 | 6 | 0 | 0.0 | 1.6 | 0.00 | 0.00 | 0.00 | 49 | 1019.8 |
| 20260507201552 | 6 | 259 | 0.0 | 1.6 | 0.00 | 0.00 | 0.00 | 50 | 1019.8 |
| 20260507201036 | 7 | 0 | 0.0 | 1.6 | 0.00 | 0.00 | 0.00 | 49 | 1019.8 |
| 20260507200536 | 7 | 0 | 0.0 | 3.2 | 0.00 | 0.00 | 0.00 | 48 | 1019.8 |
| 20260507200043 | 7 | 0 | 0.0 | 3.2 | 0.00 | 0.00 | 0.00 | 48 | 1019.7 |
| 20260507195534 | 7 | 0 | 0.0 | 3.2 | 0.00 | 0.00 | 0.00 | 46 | 1019.7 |
| 20260507195037 | 7 | 245 | 0.0 | 3.2 | 0.00 | 0.00 | 0.00 | 44 | 1019.6 |
| 20260507194541 | 8 | 0 | 0.0 | 6.4 | 0.00 | 0.00 | 0.00 | 42 | 1019.6 |
| 20260507194036 | 8 | 205 | 1.6 | 6.4 | 0.00 | 0.00 | 0.00 | 42 | 1019.5 |
| 20260507193535 | 8 | 0 | 0.0 | 1.6 | 0.00 | 0.00 | 0.00 | 40 | 1019.5 |
| 20260507193039 | 8 | 137 | 0.0 | 3.2 | 0.00 | 0.00 | 0.00 | 40 | 1019.3 |
| 20260507192535 | 8 | 0 | 0.0 | 3.2 | 0.00 | 0.00 | 0.00 | 39 | 1019.3 |
| 20260507192034 | 8 | 153 | 0.0 | 3.2 | 0.00 | 0.00 | 0.00 | 38 | 1019.2 |
| 20260507191552 | 8 | 250 | 0.0 | 3.2 | 0.00 | 0.00 | 0.00 | 38 | 1019.2 |
| 20260507191034 | 9 | 0 | 0.0 | 3.2 | 0.00 | 0.00 | 0.00 | 36 | 1019.2 |
| 20260507190535 | 9 | 276 | 1.6 | 3.2 | 0.00 | 0.00 | 0.00 | 36 | 1019.1 |
| 20260507190052 | 9 | 0 | 0.0 | 1.6 | 0.00 | 0.00 | 0.00 | 36 | 1019.1 |
| 20260507185534 | 10 | 0 | 0.0 | 3.2 | 0.00 | 0.00 | 0.00 | 35 | 1019.1 |
| 20260507185038 | 10 | 231 | 1.6 | 3.2 | 0.00 | 0.00 | 0.00 | 35 | 1019.0 |
| 20260507184548 | 10 | 0 | 0.0 | 3.2 | 0.00 | 0.00 | 0.00 | 35 | 1019.0 |
| 20260507184034 | 10 | 215 | 0.0 | 3.2 | 0.00 | 0.00 | 0.00 | 33 | 1018.9 |
| 20260507183535 | 10 | 215 | 1.6 | 8.0 | 0.00 | 0.00 | 0.00 | 34 | 1018.9 |
| 20260507183044 | 11 | 237 | 3.2 | 8.0 | 0.00 | 0.00 | 0.00 | 33 | 1018.9 |
| 20260507182534 | 11 | 215 | 3.2 | 8.0 | 0.00 | 0.00 | 0.00 | 33 | 1018.8 |
| 20260507182035 | 11 | 210 | 3.2 | 8.0 | 0.00 | 0.00 | 0.00 | 33 | 1018.9 |
| 20260507181540 | 11 | 162 | 4.8 | 8.0 | 0.00 | 0.00 | 0.00 | 32 | 1018.8 |
| 20260507181035 | 11 | 217 | 4.8 | 11.3 | 0.00 | 0.00 | 0.00 | 32 | 1018.8 |
| 20260507180535 | 11 | 229 | 6.4 | 12.9 | 0.00 | 0.00 | 0.00 | 32 | 1018.8 |
| 20260507180039 | 11 | 231 | 8.0 | 12.9 | 0.00 | 0.00 | 0.00 | 33 | 1018.7 |
| 20260507175534 | 11 | 221 | 6.4 | 14.5 | 0.00 | 0.00 | 0.00 | 32 | 1018.7 |
| 20260507175035 | 12 | 217 | 8.0 | 14.5 | 0.00 | 0.00 | 0.00 | 30 | 1018.7 |
| 20260507174545 | 12 | 206 | 8.0 | 16.1 | 0.00 | 0.00 | 0.00 | 32 | 1018.6 |